Erzurum, Turkey

3:49 AM +03 on September 24, 2017 (GMT +0300)
Erzurum

Weather History for LTCE - March, 2013

Change the Weather History Date:

Thursday, March 7, 2013

  Actual Average Record
Temperature  
Mean Temperature 2 °F -  
Max Temperature 18 °F 40 °F 64 °F (1997)
Min Temperature -14 °F 25 °F -14 °F (2013)
Degree Days  
Heating Degree Days 63    
Moisture  
Dew Point -2 °F    
Average Humidity 81    
Maximum Humidity 100    
Minimum Humidity 58    
Precipitation  
Precipitation 0.00 in 0.05 in - ()
Sea Level Pressure  
Sea Level Pressure 30.29 in    
Wind  
Wind Speed 4 mph ()    
Max Wind Speed 17 mph    
Max Gust Speed -    
Visibility 7.7 miles    
Events      
Averages and records for this station are not official NWS values.
T = Trace of Precipitation, MM = Missing Value Source: Averaged Metar Reports

Daily Weather History Graph

Daily Weather History Graph

Search for Another Location

Airport or City:

Trip Planner

Search our weather history database for the weather conditions in past years. The results will help you decide how hot, cold, wet, or windy it might be!

Date:

Astronomy

Mar. 07, 2013 Rise Set
Actual Time 5:39 AM EET 5:13 PM EET
Civil Twilight 5:12 AM EET 5:40 PM EET
Nautical Twilight 4:41 AM EET 6:12 PM EET
Astronomical Twilight 4:09 AM EET 6:43 PM EET
Moon 2:21 AM EET (3/7) 12:37 PM EET (3/7)
Length of Visible Light 12h 28m
Length of Day
11h 34m
Waning Crescent, 23% of the Moon is Illuminated
Mar 7
Waning Crescent
Mar 11
New
Mar 19
First Quarter
Mar 27
Full
Apr 3
Last Quarter

Hourly Weather History & Observations

Time (EET) Temp. Windchill Dew Point Humidity Pressure Visibility Wind Dir Wind Speed Gust Speed Precip Events Conditions
12:20 AM -5.8 °F - -7.6 °F 92% 30.27 in - Calm Calm - N/A   Clear
12:50 AM -4.0 °F - -5.8 °F 92% 30.27 in - Variable 1.2 mph - N/A   Clear
1:20 AM -4.0 °F - -7.6 °F 85% 30.27 in - Variable 1.2 mph - N/A   Clear
1:50 AM -7.6 °F - -9.4 °F 92% 30.27 in - Variable 1.2 mph - N/A   Clear
2:00 AM -7 °F - -7 °F 100%  in 12 mi SW 1.2 mph - -  
2:20 AM -5.8 °F - -7.6 °F 92% 30.27 in - Variable 1.2 mph - N/A   Clear
2:50 AM -13.0 °F - -14.8 °F 92% 30.27 in - ENE 2.3 mph - N/A   Clear
3:20 AM -11.2 °F - -14.8 °F 84% 30.27 in - East 2.3 mph - N/A   Clear
3:50 AM -9.4 °F - -13.0 °F 84% 30.27 in - Calm Calm - N/A   Clear
4:20 AM -13.0 °F - -16.6 °F 84% 30.27 in - Calm Calm - N/A   Clear
4:50 AM -11.2 °F - -13.0 °F 92% 30.30 in - Variable 1.2 mph - N/A   Clear
5:20 AM -14.8 °F - -18.4 °F 84% 30.30 in - Variable 2.3 mph - N/A   Clear
5:50 AM -9.4 °F -18.6 °F -13.0 °F 84% 30.30 in - West 3.5 mph - N/A   Clear
6:20 AM -9.4 °F - -13.0 °F 84% 30.33 in - Variable 2.3 mph - N/A   Clear
6:50 AM -7.6 °F - -11.2 °F 84% 30.33 in - Variable 1.2 mph - N/A   Clear
7:20 AM -0.4 °F - -2.2 °F 92% 30.33 in - Calm Calm - N/A   Clear
7:50 AM -9.4 °F - -13.0 °F 84% 30.33 in - ENE 2.3 mph - N/A   Clear
8:00 AM -10 °F - -11 °F 92%  in 6 mi East 2.3 mph - -  
8:20 AM -4.0 °F - -7.6 °F 85% 30.33 in 5.0 mi Variable 1.2 mph - N/A   Unknown
8:50 AM -0.4 °F - -2.2 °F 92% 30.33 in 5.0 mi Variable 2.3 mph - N/A   Unknown
9:20 AM 1.4 °F - -0.4 °F 92% 30.33 in - Variable 2.3 mph - N/A   Clear
9:50 AM 10.4 °F - 10.4 °F 100% 30.33 in - Calm Calm - N/A   Clear
10:20 AM 12.2 °F - 3.2 °F 67% 30.33 in - Variable 2.3 mph - N/A   Clear
10:50 AM 14.0 °F 8.2 °F 5.0 °F 67% 30.33 in - North 3.5 mph - N/A   Clear
11:20 AM 14.0 °F 3.9 °F 5.0 °F 67% 30.33 in - NE 6.9 mph - N/A   Clear
11:50 AM 15.8 °F 2.7 °F 8.6 °F 73% 30.33 in - NE 11.5 mph - N/A   Clear
12:20 PM 15.8 °F 2.1 °F 6.8 °F 68% 30.30 in - East 12.7 mph - N/A   Clear
12:50 PM 15.8 °F 2.7 °F 8.6 °F 73% 30.30 in - East 11.5 mph - N/A   Clear
1:20 PM 15.8 °F 1.4 °F 8.6 °F 73% 30.30 in - ENE 13.8 mph - N/A   Clear
1:50 PM 17.6 °F 3.2 °F 8.6 °F 68% 30.30 in - East 15.0 mph - N/A   Clear
2:00 PM 17 °F - 9 °F 58%  in 12 mi East 15.0 mph - -  
2:20 PM 17.6 °F 5.7 °F 8.6 °F 68% 30.27 in - East 10.4 mph - N/A   Clear
2:50 PM 17.6 °F 4.3 °F 8.6 °F 68% 30.27 in - East 12.7 mph - N/A   Clear
3:20 PM 17.6 °F 3.7 °F 8.6 °F 68% 30.27 in - East 13.8 mph - N/A   Clear
3:50 PM 15.8 °F -0.2 °F 6.8 °F 68% 30.27 in - East 17.3 mph - N/A   Clear
4:20 PM 15.8 °F 2.1 °F 6.8 °F 68% 30.27 in - East 12.7 mph - N/A   Clear
4:50 PM 14.0 °F -0.8 °F 5.0 °F 67% 30.27 in - East 13.8 mph - N/A   Clear
5:20 PM 12.2 °F 0.7 °F 5.0 °F 73% 30.27 in - East 8.1 mph - N/A   Clear
5:50 PM 12.2 °F -1.8 °F 5.0 °F 73% 30.27 in - ESE 11.5 mph - N/A   Clear
6:20 PM 14.0 °F -2.0 °F 5.0 °F 67% 30.27 in - East 16.1 mph - N/A   Clear
6:50 PM 12.2 °F -1.8 °F 3.2 °F 67% 30.30 in - NE 11.5 mph - N/A   Clear
7:20 PM 5.0 °F -9.1 °F -0.4 °F 78% 30.30 in - SE 9.2 mph - N/A   Clear
7:50 PM 3.2 °F -4.2 °F -0.4 °F 85% 30.30 in - SE 3.5 mph - N/A   Clear
8:00 PM 3 °F - 2 °F 94%  in 6 mi SE 3.5 mph - -  
8:20 PM 5.0 °F - -0.4 °F 78% 30.30 in - Variable 1.2 mph - N/A   Clear
8:50 PM 3.2 °F - -0.4 °F 85% 30.30 in - Variable 1.2 mph - N/A   Clear
9:20 PM -0.4 °F - -4.0 °F 85% 30.30 in - Calm Calm - N/A   Clear
9:50 PM -2.2 °F -10.4 °F -4.0 °F 92% 30.27 in - NNW 3.5 mph - N/A   Clear
10:20 PM -4.0 °F - -4.0 °F 100% 30.27 in - Variable 1.2 mph - N/A   Clear
10:50 PM -2.2 °F -10.4 °F -4.0 °F 92% 30.27 in - West 3.5 mph - N/A   Clear
11:20 PM 1.4 °F -9.9 °F -2.2 °F 85% 30.27 in - WNW 5.8 mph - N/A   Clear
11:50 PM -7.6 °F - -9.4 °F 92% 30.27 in - Variable 1.2 mph - N/A   Clear